Huvudsida
METAR-TAF:

METAR-TAF

Flygplatser :

Båtsfjords flygplats

Båtsfjords, Norge

latitud: 70-38N, longitud: 029-44E, höjd: 10 m

Aktuellt väderrapport

Denna rapport gjordes för 1 timme och 2 minuter sedan, klockan 06:50 UTC
Vind 3 kt från syd
Temperatur 4°C
Fuktighet 81%
Tryck 999 hPa
Sikt 10 km eller mer
Få moln på en höjd av 3100 ft

METAR: ENBS 180650Z 18003KT 9999 FEW031 04/01 Q0999

Tid: 09:52 (07:52 UTC)


TAF: saknas

Aktuella väderrapporter och prognoser från 4000 flygplatser (METAR- och TAF-rapporter).

De tillgängliga stationerna syns som gula och röda prickar på kartan.

För musen över prickarna för att se namnen på stationerna.

Klicka sedan för att få väderrapporter och prognoser.

För att ändra kartan: Klicka på de gröna knapparna med ett svart kors på för att zooma in; den gröna knappen med ett streck på för att zooma ut; eller på de gröna pilarna för angränsande kartor.


METAR-TAF: